This demonstration page uses our WeatherBlox Daily Observations layout. Learn more.

Left ArrowRight Arrow

Hourly Observations for May 28, 2020

Temp ( °F °C ) Dew Point ( °F °C ) Humidity (%) Winds ( mph kmh ) Pressure ( in mb ) Visibility ( mi km ) Precip ( " mm )
12:52 am 00:52 Cloudy 65 18.3 63 17.2 93 93 N 6 9 29.89 1012 10 16 0.00 0.00
1:52 am 01:52 Cloudy 64 17.8 63 17.2 96 96 N 5 7 29.89 1012 10 16 0.00 0.00
2:52 am 02:52 Cloudy 64 17.8 62 16.7 93 93 N 8 13 29.88 1012 10 16 0.00 0.00
3:52 am 03:52 Cloudy 63 17.2 62 16.7 97 97 N 8 13 29.88 1012 10 16 0.00 0.00
4:52 am 04:52 Cloudy 64 17.8 61 16.1 90 90 N 6 9 29.89 1012 10 16 0.00 0.00
5:52 am 05:52 Cloudy 64 17.8 61 16.1 90 90 NNW 9 15 29.90 1013 10 16 0.00 0.00
6:52 am 06:52 Cloudy 64 17.8 60 15.6 87 87 NNW 9 15 29.92 1013 10 16 0.00 0.00
7:52 am 07:52 Cloudy 64 17.8 59 15 84 84 N 9 15 29.93 1014 10 16 0.00 0.00
8:52 am 08:52 Cloudy 66 18.9 59 15 78 78 N 12 19 29.93 1014 10 16 0.00 0.00
9:52 am 09:52 Mostly Cloudy 69 20.6 59 15 70 70 N 17 28 29.93 1014 10 16 0.00 0.00
10:52 am 10:52 Cloudy 73 22.8 56 13.3 55 55 N 22 35 29.95 1014 10 16 0.00 0.00
11:52 am 11:52 Cloudy 75 23.9 55 12.8 50 50 N 20 31 29.96 1015 10 16 0.00 0.00
12:52 pm 12:52 Mostly Cloudy 76 24.4 55 12.8 48 48 N 21 33 29.97 1015 10 16 0.00 0.00
1:52 pm 13:52 Mostly Cloudy 79 26.1 55 12.8 44 44 N 18 30 29.97 1015 10 16 0.00 0.00
2:52 pm 14:52 Mostly Cloudy 80 26.7 53 11.7 39 39 NNE 14 22 29.97 1015 10 16 0.00 0.00
3:52 pm 15:52 Mostly Cloudy 81 27.2 53 11.7 38 38 N 20 31 29.96 1015 10 16 0.00 0.00
4:52 pm 16:52 Mostly Cloudy 82 27.8 52 11.1 35 35 N 17 28 29.96 1014 10 16 0.00 0.00
5:52 pm 17:52 Mostly Cloudy 81 27.2 46 7.8 29 29 N 21 33 29.96 1015 10 16 0.00 0.00
6:52 pm 18:52 Cloudy 78 25.6 43 6.1 29 29 NNW 22 35 29.98 1015 10 16 0.00 0.00
7:52 pm 19:52 Partly Cloudy 74 23.3 44 6.7 34 34 NNW 13 20 30.02 1017 10 16 0.00 0.00
8:52 pm 20:52 Partly Cloudy 67 19.4 47 8.3 49 49 NW 9 15 30.03 1017 10 16 0.00 0.00
9:52 pm 21:52 Clear 61 16.1 49 9.4 65 65 N 7 11 30.06 1018 10 16 0.00 0.00
10:52 pm 22:52 Clear 60 15.6 48 8.9 65 65 NNW 5 7 30.07 1018 10 16 0.00 0.00
11:52 pm 23:52 Clear 58 14.4 49 9.4 72 72 Calm 30.09 1019 10 16 0.00 0.00

Powered by AerisWeather